Hourly Data Report for October 29, 2016

All times are specified in Local Standard Time (LST). Add 1 hour to adjust for Daylight Saving Time where and when it is observed.

KUGAARUK CLIMATE
NUNAVUT

68°32'15.060" N
89°47'47.020" W
15.80 m
2303094
71407
NBB

Download Data

Hourly Data (October 2016)
Hourly Data Report for October 29, 2016
Temp Definition
°C
Dew Point Temp Definition
°C
Rel Hum Definition
%
Wind Dir Definition
10's deg

Wind Spd Definition
km/h
Visibility Definition
km
Stn Press Definition
kPa
Hmdx Definition


Wind Chill Definition


Weather Definition


TIME
00:00 -10.3 -11.7 89 2 23   100.12   -19 LegendNANA
01:00 -10.5 -12.0 89 1 29   100.05   -20 LegendNANA
02:00 -10.0 -11.3 90 1 36   100.00   -20 LegendNANA
03:00 -10.4 -11.8 90 1 35   99.99   -21 LegendNANA
04:00 -10.5 -11.9 90 2 29   99.98   -20 LegendNANA
05:00 -11.6 -13.1 89 1 26   99.99   -21 LegendNANA
06:00 -10.6 -11.9 90 2 18   99.97   -18 LegendNANA
07:00 -9.9 -11.2 91 1 33   99.89   -20 LegendNANA
08:00 -9.8 -11.1 90 1 33   99.84   -20 LegendNANA
09:00 -11.6 -13.1 89 2 18   99.82   -19 LegendNANA
10:00 -10.9 -12.5 88 14 7   99.78   -15 LegendNANA
11:00 -9.3 -10.7 90   0   99.75     LegendNANA
12:00 -10.2 -11.7 89 9 3   99.75   -12 LegendNANA
13:00 -12.4 -14.0 88 8 3   99.81   -14 LegendNANA
14:00 -13.0 -14.5 88 4 6   99.87   -17 LegendNANA
15:00 -13.6 -15.3 87 7 4   99.98   -16 LegendNANA
16:00 -15.2 -16.8 88 7 10   100.05   -21 LegendNANA
17:00 -17.8 -19.8 84 10 7   100.14   -23 LegendNANA
18:00 -18.5 -20.5 84 5 7   100.21   -24 LegendNANA
19:00 -16.2 -17.9 87 3 6   100.23   -21 LegendNANA
20:00 -17.3 -19.2 85 7 2   100.25   -19 LegendNANA
21:00 -14.4 -16.0 87 27 3   100.25   -17 LegendNANA
22:00 -11.9 -13.3 90 24 24   100.17   -21 LegendNANA
23:00 -10.5 -11.7 91 23 30   100.14   -20 LegendNANA

Notes on Data Quality.

Legend

  • E = Estimated
  • M = Missing
  • NA = Not Available
  • ‡ = Partner data that is not subject to review by the National Climate Archives
Date modified: